Year,Month,Day,Hour,Minute,Value (Times are PST for windspeed in km/hr)
2017,11,26,00,00,8.10
2017,11,26,00,01,7.80
2017,11,26,00,02,8.70
2017,11,26,00,03,14.10
2017,11,26,00,04,20.30
2017,11,26,00,05,16.40
2017,11,26,00,06,7.20
2017,11,26,00,07,8.30
2017,11,26,00,08,12.40
2017,11,26,00,09,8.30
2017,11,26,00,10,10.90
2017,11,26,00,11,11.80
2017,11,26,00,12,11.10
2017,11,26,00,13,11.10
2017,11,26,00,14,12.90
2017,11,26,00,15,12.70
2017,11,26,00,16,20.30
2017,11,26,00,17,11.40
2017,11,26,00,18,10.90
2017,11,26,00,19,10.70
2017,11,26,00,20,16.00
2017,11,26,00,21,15.10
2017,11,26,00,22,7.40
2017,11,26,00,23,8.80
2017,11,26,00,24,17.50
2017,11,26,00,25,23.50
2017,11,26,00,26,22.60
2017,11,26,00,27,12.70
2017,11,26,00,28,14.00
2017,11,26,00,29,16.70
2017,11,26,00,30,12.30
2017,11,26,00,31,6.00
2017,11,26,00,32,9.40
2017,11,26,00,33,10.10
2017,11,26,00,34,8.90
2017,11,26,00,35,8.40
2017,11,26,00,36,2.50
2017,11,26,00,37,9.10
2017,11,26,00,38,19.30
2017,11,26,00,39,16.10
2017,11,26,00,40,11.70
2017,11,26,00,41,15.10
2017,11,26,00,42,13.20
2017,11,26,00,43,7.90
2017,11,26,00,44,5.60
2017,11,26,00,45,8.80
2017,11,26,00,46,12.70
2017,11,26,00,47,21.50
2017,11,26,00,48,13.30
2017,11,26,00,49,13.70
2017,11,26,00,50,16.30
2017,11,26,00,51,21.00
2017,11,26,00,52,9.40
2017,11,26,00,53,13.30
2017,11,26,00,54,5.80
2017,11,26,00,55,10.50
2017,11,26,00,56,9.20
2017,11,26,00,57,7.80
2017,11,26,00,58,6.60
2017,11,26,00,59,8.10
2017,11,26,01,00,7.80
2017,11,26,01,01,12.50
2017,11,26,01,02,13.60
2017,11,26,01,03,4.00
2017,11,26,01,04,2.30
2017,11,26,01,05,2.80
2017,11,26,01,06,5.30
2017,11,26,01,07,3.40
2017,11,26,01,08,3.80
2017,11,26,01,09,5.90
2017,11,26,01,10,10.20
2017,11,26,01,11,12.00
2017,11,26,01,12,7.10
2017,11,26,01,13,1.70
2017,11,26,01,14,3.80
2017,11,26,01,15,2.20
2017,11,26,01,16,4.80
2017,11,26,01,17,8.80
2017,11,26,01,18,11.40
2017,11,26,01,19,7.80
2017,11,26,01,20,13.30
2017,11,26,01,21,12.40
2017,11,26,01,22,9.00
2017,11,26,01,23,14.50
2017,11,26,01,24,14.00
2017,11,26,01,25,24.30
2017,11,26,01,26,20.30
2017,11,26,01,27,9.60
2017,11,26,01,28,12.60
2017,11,26,01,29,15.30
2017,11,26,01,30,16.10
2017,11,26,01,31,24.10
2017,11,26,01,32,27.50
2017,11,26,01,33,26.10
2017,11,26,01,34,17.50
2017,11,26,01,35,19.40
2017,11,26,01,36,17.30
2017,11,26,01,37,21.40
2017,11,26,01,38,16.00
2017,11,26,01,39,17.30
2017,11,26,01,40,22.90
2017,11,26,01,41,18.20
2017,11,26,01,42,10.70
2017,11,26,01,43,10.30
2017,11,26,01,44,12.50
2017,11,26,01,45,13.00
2017,11,26,01,46,13.30
2017,11,26,01,47,15.90
2017,11,26,01,48,21.20
2017,11,26,01,49,14.20
2017,11,26,01,50,16.90
2017,11,26,01,51,11.50
2017,11,26,01,52,12.70
2017,11,26,01,53,17.60
2017,11,26,01,54,26.10
2017,11,26,01,55,15.00
2017,11,26,01,56,8.00
2017,11,26,01,57,10.10
2017,11,26,01,58,13.20
2017,11,26,01,59,10.20
2017,11,26,02,00,21.60
2017,11,26,02,01,17.50
2017,11,26,02,02,18.60
2017,11,26,02,03,18.80
2017,11,26,02,04,22.10
2017,11,26,02,05,16.40
2017,11,26,02,06,14.00
2017,11,26,02,07,15.70
2017,11,26,02,08,13.50
2017,11,26,02,09,16.90
2017,11,26,02,10,16.90
2017,11,26,02,11,14.00
2017,11,26,02,12,19.70
2017,11,26,02,13,17.60
2017,11,26,02,14,14.20
2017,11,26,02,15,12.20
2017,11,26,02,16,16.20
2017,11,26,02,17,18.40
2017,11,26,02,18,11.10
2017,11,26,02,19,14.50
2017,11,26,02,20,15.40
2017,11,26,02,21,16.80
2017,11,26,02,22,9.70
2017,11,26,02,23,17.20
2017,11,26,02,24,13.60
2017,11,26,02,25,14.80
2017,11,26,02,26,11.70
2017,11,26,02,27,13.50
2017,11,26,02,28,9.00
2017,11,26,02,29,8.40
2017,11,26,02,30,9.80
2017,11,26,02,31,16.10
2017,11,26,02,32,16.10
2017,11,26,02,33,16.10
2017,11,26,02,34,16.20
2017,11,26,02,35,16.20
2017,11,26,02,36,8.70
2017,11,26,02,37,14.60
2017,11,26,02,38,16.90
2017,11,26,02,39,18.00
2017,11,26,02,40,14.90
2017,11,26,02,41,19.00
2017,11,26,02,42,16.10
2017,11,26,02,43,14.30
2017,11,26,02,44,7.40
2017,11,26,02,45,10.10
2017,11,26,02,46,10.30
2017,11,26,02,47,10.40
2017,11,26,02,48,11.60
2017,11,26,02,49,11.00
2017,11,26,02,50,10.90
2017,11,26,02,51,9.10
2017,11,26,02,52,12.80
2017,11,26,02,53,15.70
2017,11,26,02,54,9.20
2017,11,26,02,55,11.80
2017,11,26,02,56,16.40
2017,11,26,02,57,16.50
2017,11,26,02,58,9.80
2017,11,26,02,59,24.40
2017,11,26,03,00,19.10
2017,11,26,03,01,18.30
2017,11,26,03,02,10.20
2017,11,26,03,03,15.70
2017,11,26,03,04,13.20
2017,11,26,03,05,16.50
2017,11,26,03,06,21.60
2017,11,26,03,07,15.70
2017,11,26,03,08,19.30
2017,11,26,03,09,23.40
2017,11,26,03,10,29.60
2017,11,26,03,11,22.00
2017,11,26,03,12,14.70
2017,11,26,03,13,27.70
2017,11,26,03,14,48.60
2017,11,26,03,15,21.10
2017,11,26,03,16,16.40
2017,11,26,03,17,19.60
2017,11,26,03,18,27.00
2017,11,26,03,19,23.60
2017,11,26,03,20,19.10
2017,11,26,03,21,18.80
2017,11,26,03,22,18.10
2017,11,26,03,23,21.80
2017,11,26,03,24,23.20
2017,11,26,03,25,16.90
2017,11,26,03,26,19.70
2017,11,26,03,27,43.10
2017,11,26,03,28,42.50
2017,11,26,03,29,22.60
2017,11,26,03,30,31.70
2017,11,26,03,31,22.00
2017,11,26,03,32,31.10
2017,11,26,03,33,20.80
2017,11,26,03,34,20.50
2017,11,26,03,35,17.90
2017,11,26,03,36,23.90
2017,11,26,03,37,35.50
2017,11,26,03,38,33.30
2017,11,26,03,39,29.50
2017,11,26,03,40,30.90
2017,11,26,03,41,26.50
2017,11,26,03,42,32.90
2017,11,26,03,43,39.00
2017,11,26,03,44,25.10
2017,11,26,03,45,29.10
2017,11,26,03,46,25.70
2017,11,26,03,47,24.30
2017,11,26,03,48,31.70
2017,11,26,03,49,25.20
2017,11,26,03,50,21.80
2017,11,26,03,51,21.80
2017,11,26,03,52,19.90
2017,11,26,03,53,35.90
2017,11,26,03,54,29.60
2017,11,26,03,55,30.50
2017,11,26,03,56,20.40
2017,11,26,03,57,28.20
2017,11,26,03,58,34.10
2017,11,26,03,59,27.60
2017,11,26,04,00,19.10
2017,11,26,04,01,21.90
2017,11,26,04,02,23.50
2017,11,26,04,03,28.50
2017,11,26,04,04,20.40
2017,11,26,04,05,27.10
2017,11,26,04,06,32.20
2017,11,26,04,07,22.20
2017,11,26,04,08,19.60
2017,11,26,04,09,29.30
2017,11,26,04,10,15.60
2017,11,26,04,11,24.30
2017,11,26,04,12,18.80
2017,11,26,04,13,18.20
2017,11,26,04,14,17.80
2017,11,26,04,15,15.90
2017,11,26,04,16,16.40
2017,11,26,04,17,14.60
2017,11,26,04,18,19.40
2017,11,26,04,19,16.50
2017,11,26,04,20,18.60
2017,11,26,04,21,23.60
2017,11,26,04,22,30.40
2017,11,26,04,23,25.60
2017,11,26,04,24,20.80
2017,11,26,04,25,14.80
2017,11,26,04,26,11.20
2017,11,26,04,27,21.40
2017,11,26,04,28,18.40
2017,11,26,04,29,12.60
2017,11,26,04,30,10.70
2017,11,26,04,31,9.50
2017,11,26,04,32,20.50
2017,11,26,04,33,23.10
2017,11,26,04,34,21.80
2017,11,26,04,35,14.80
2017,11,26,04,36,18.50
2017,11,26,04,37,16.10
2017,11,26,04,38,32.20
2017,11,26,04,39,24.70
2017,11,26,04,40,16.90
2017,11,26,04,41,14.30
2017,11,26,04,42,16.30
2017,11,26,04,43,15.50
2017,11,26,04,44,19.10
2017,11,26,04,45,19.30
2017,11,26,04,46,20.10
2017,11,26,04,47,21.30
2017,11,26,04,48,19.80
2017,11,26,04,49,13.90
2017,11,26,04,50,13.20
2017,11,26,04,51,15.20
2017,11,26,04,52,22.40
2017,11,26,04,53,20.70
2017,11,26,04,54,15.30
2017,11,26,04,55,20.30
2017,11,26,04,56,18.30
2017,11,26,04,57,14.20
2017,11,26,04,58,18.50
2017,11,26,04,59,15.50
2017,11,26,05,00,22.90
2017,11,26,05,01,15.90
2017,11,26,05,02,11.60
2017,11,26,05,03,17.50
2017,11,26,05,04,15.00
2017,11,26,05,05,7.70
2017,11,26,05,06,11.50
2017,11,26,05,07,8.60
2017,11,26,05,08,12.40
2017,11,26,05,09,17.50
2017,11,26,05,10,19.70
2017,11,26,05,11,11.40
2017,11,26,05,12,11.50
2017,11,26,05,13,12.90
2017,11,26,05,14,8.00
2017,11,26,05,15,8.10
2017,11,26,05,16,14.80
2017,11,26,05,17,14.70
2017,11,26,05,18,13.30
2017,11,26,05,19,7.40
2017,11,26,05,20,11.10
2017,11,26,05,21,6.80
2017,11,26,05,22,11.70
2017,11,26,05,23,16.30
2017,11,26,05,24,10.90
2017,11,26,05,25,7.30
2017,11,26,05,26,7.20
2017,11,26,05,27,15.30
2017,11,26,05,28,12.20
2017,11,26,05,29,9.90
2017,11,26,05,30,12.80
2017,11,26,05,31,4.30
2017,11,26,05,32,10.30
2017,11,26,05,33,8.30
2017,11,26,05,34,16.60
2017,11,26,05,35,10.50
2017,11,26,05,36,6.60
2017,11,26,05,37,18.00
2017,11,26,05,38,9.70
2017,11,26,05,39,8.70
2017,11,26,05,40,8.10
2017,11,26,05,41,14.40
2017,11,26,05,42,8.40
2017,11,26,05,43,12.40
2017,11,26,05,44,11.30
2017,11,26,05,45,7.00
2017,11,26,05,46,9.00
2017,11,26,05,47,11.30
2017,11,26,05,48,16.90
2017,11,26,05,49,20.10
2017,11,26,05,50,12.30
2017,11,26,05,51,12.80
2017,11,26,05,52,8.20
2017,11,26,05,53,13.40
2017,11,26,05,54,13.00
2017,11,26,05,55,12.10
2017,11,26,05,56,8.50
2017,11,26,05,57,7.60
2017,11,26,05,58,13.70
2017,11,26,05,59,14.70
2017,11,26,06,00,11.70
2017,11,26,06,01,6.90
2017,11,26,06,02,10.60
2017,11,26,06,03,16.40
2017,11,26,06,04,13.70
2017,11,26,06,05,11.40
2017,11,26,06,06,13.70
2017,11,26,06,07,12.90
2017,11,26,06,08,11.90
2017,11,26,06,09,12.00
2017,11,26,06,10,13.70
2017,11,26,06,11,8.30
2017,11,26,06,12,11.20
2017,11,26,06,13,14.30
2017,11,26,06,14,12.10
2017,11,26,06,15,10.20
2017,11,26,06,16,14.40
2017,11,26,06,17,12.40
2017,11,26,06,18,12.30
2017,11,26,06,19,14.90
2017,11,26,06,20,16.00
2017,11,26,06,21,9.00
2017,11,26,06,22,13.90
2017,11,26,06,23,8.80
2017,11,26,06,24,12.60
2017,11,26,06,25,15.20
2017,11,26,06,26,19.10
2017,11,26,06,27,13.40
2017,11,26,06,28,15.00
2017,11,26,06,29,16.60
2017,11,26,06,30,13.40
2017,11,26,06,31,13.00
2017,11,26,06,32,10.10
2017,11,26,06,33,9.60
2017,11,26,06,34,11.30
2017,11,26,06,35,6.00
2017,11,26,06,36,4.00
2017,11,26,06,37,2.60
2017,11,26,06,38,5.00
2017,11,26,06,39,3.30
2017,11,26,06,40,3.20
2017,11,26,06,41,2.00
2017,11,26,06,42,1.30
2017,11,26,06,43,2.40
2017,11,26,06,44,4.90
2017,11,26,06,45,5.20
2017,11,26,06,46,4.00
2017,11,26,06,47,1.60
2017,11,26,06,48,3.90
2017,11,26,06,49,2.70
2017,11,26,06,50,7.60
2017,11,26,06,51,12.80
2017,11,26,06,52,10.10
2017,11,26,06,53,4.10
2017,11,26,06,54,6.20
2017,11,26,06,55,9.70
2017,11,26,06,56,8.00
2017,11,26,06,57,23.80
2017,11,26,06,58,15.00
2017,11,26,06,59,8.10
2017,11,26,07,00,12.20
2017,11,26,07,01,4.00
2017,11,26,07,02,7.70
2017,11,26,07,03,4.40
2017,11,26,07,04,13.00
2017,11,26,07,05,10.90
2017,11,26,07,06,14.80
2017,11,26,07,07,17.90
2017,11,26,07,08,13.40
2017,11,26,07,09,10.90
2017,11,26,07,10,8.70
2017,11,26,07,11,14.00
2017,11,26,07,12,10.30
2017,11,26,07,13,7.60
2017,11,26,07,14,4.50
2017,11,26,07,15,10.00
2017,11,26,07,16,13.80
2017,11,26,07,17,13.60
2017,11,26,07,18,16.70
2017,11,26,07,19,10.30
2017,11,26,07,20,8.20
2017,11,26,07,21,17.70
2017,11,26,07,22,9.60
2017,11,26,07,23,11.40
2017,11,26,07,24,14.20
2017,11,26,07,25,15.60
2017,11,26,07,26,13.80
2017,11,26,07,27,10.30
2017,11,26,07,28,15.10
2017,11,26,07,29,11.50
2017,11,26,07,30,15.80
2017,11,26,07,31,11.50
2017,11,26,07,32,8.60
2017,11,26,07,33,6.30
2017,11,26,07,34,5.10
2017,11,26,07,35,7.30
2017,11,26,07,36,12.00
2017,11,26,07,37,10.70
2017,11,26,07,38,5.70
2017,11,26,07,39,6.30
2017,11,26,07,40,17.40
2017,11,26,07,41,7.60
2017,11,26,07,42,12.20
2017,11,26,07,43,8.60
2017,11,26,07,44,3.60
2017,11,26,07,45,6.70
2017,11,26,07,46,4.70
2017,11,26,07,47,18.30
2017,11,26,07,48,9.20
2017,11,26,07,49,6.30
2017,11,26,07,50,7.80
2017,11,26,07,51,9.30
2017,11,26,07,52,12.20
2017,11,26,07,53,7.70
2017,11,26,07,54,7.60
2017,11,26,07,55,11.40
2017,11,26,07,56,5.70
2017,11,26,07,57,3.90
2017,11,26,07,58,7.80
2017,11,26,07,59,6.70
2017,11,26,08,00,5.20
2017,11,26,08,01,9.00
2017,11,26,08,02,7.20
2017,11,26,08,03,10.40
2017,11,26,08,04,10.60
2017,11,26,08,05,6.30
2017,11,26,08,06,7.00
2017,11,26,08,07,4.20
2017,11,26,08,08,9.70
2017,11,26,08,09,10.30
2017,11,26,08,10,10.70
2017,11,26,08,11,10.20
2017,11,26,08,12,9.40
2017,11,26,08,13,7.70
2017,11,26,08,14,6.00
2017,11,26,08,15,7.50
2017,11,26,08,16,7.40
2017,11,26,08,17,12.40
2017,11,26,08,18,9.80
2017,11,26,08,19,10.30
2017,11,26,08,20,11.40
2017,11,26,08,21,6.70
2017,11,26,08,22,11.00
2017,11,26,08,23,6.40
2017,11,26,08,24,3.20
2017,11,26,08,25,2.70
2017,11,26,08,26,5.70
2017,11,26,08,27,6.30
2017,11,26,08,28,10.20
2017,11,26,08,29,10.30
2017,11,26,08,30,3.60
2017,11,26,08,31,4.00
2017,11,26,08,32,8.80
2017,11,26,08,33,12.00
2017,11,26,08,34,11.60
2017,11,26,08,35,13.80
2017,11,26,08,36,8.50
2017,11,26,08,37,5.20
2017,11,26,08,38,5.50
2017,11,26,08,39,6.70
2017,11,26,08,40,8.30
2017,11,26,08,41,5.90
2017,11,26,08,42,7.00
2017,11,26,08,43,7.60
2017,11,26,08,44,5.70
2017,11,26,08,45,4.00
2017,11,26,08,46,3.50
2017,11,26,08,47,2.40
2017,11,26,08,48,4.60
2017,11,26,08,49,3.00
2017,11,26,08,50,1.00
2017,11,26,08,51,1.70
2017,11,26,08,52,5.70
2017,11,26,08,53,8.80
2017,11,26,08,54,2.50
2017,11,26,08,55,0.80
2017,11,26,08,56,5.80
2017,11,26,08,57,4.40
2017,11,26,08,58,9.50
2017,11,26,08,59,11.80
2017,11,26,09,00,7.60
2017,11,26,09,01,11.90
2017,11,26,09,02,11.00
2017,11,26,09,03,15.00
2017,11,26,09,04,15.50
2017,11,26,09,05,12.50
2017,11,26,09,06,10.60
2017,11,26,09,07,11.60
2017,11,26,09,08,8.40
2017,11,26,09,09,7.60
2017,11,26,09,10,12.10
2017,11,26,09,11,7.30
2017,11,26,09,12,8.90
2017,11,26,09,13,4.80
2017,11,26,09,14,7.60
2017,11,26,09,15,9.00
2017,11,26,09,16,7.10
2017,11,26,09,17,13.20
2017,11,26,09,18,5.90
2017,11,26,09,19,9.60
2017,11,26,09,20,6.00
2017,11,26,09,21,6.10
2017,11,26,09,22,4.80
2017,11,26,09,23,4.80
2017,11,26,09,24,5.20
2017,11,26,09,25,6.80
2017,11,26,09,26,3.30
2017,11,26,09,27,3.50
2017,11,26,09,28,2.60
2017,11,26,09,29,4.90
2017,11,26,09,30,3.60
2017,11,26,09,31,5.00
2017,11,26,09,32,5.30
2017,11,26,09,33,4.20
2017,11,26,09,34,2.40
2017,11,26,09,35,4.10
2017,11,26,09,36,7.20
2017,11,26,09,37,4.80
2017,11,26,09,38,2.80
2017,11,26,09,39,4.00
2017,11,26,09,40,3.20
2017,11,26,09,41,4.70
2017,11,26,09,42,6.60
2017,11,26,09,43,4.80
2017,11,26,09,44,1.40
2017,11,26,09,45,4.30
2017,11,26,09,46,4.40
2017,11,26,09,47,8.20
2017,11,26,09,48,11.20
2017,11,26,09,49,8.80
2017,11,26,09,50,7.40
2017,11,26,09,51,8.10
2017,11,26,09,52,5.50
2017,11,26,09,53,5.40
2017,11,26,09,54,4.30
2017,11,26,09,55,2.30
2017,11,26,09,56,2.60
2017,11,26,09,57,2.00
2017,11,26,09,58,1.70
2017,11,26,09,59,4.30
2017,11,26,10,00,3.90
2017,11,26,10,01,2.50
2017,11,26,10,02,2.20
2017,11,26,10,03,0.80
2017,11,26,10,04,5.20
2017,11,26,10,05,3.70
2017,11,26,10,06,4.50
2017,11,26,10,07,3.00
2017,11,26,10,08,0.90
2017,11,26,10,09,2.80
2017,11,26,10,10,1.20
2017,11,26,10,11,0.00
2017,11,26,10,12,0.00
2017,11,26,10,13,0.00
2017,11,26,10,14,0.00
2017,11,26,10,15,0.00
2017,11,26,10,16,0.00
2017,11,26,10,17,0.00
2017,11,26,10,18,0.00
2017,11,26,10,19,0.00
2017,11,26,10,20,0.00
2017,11,26,10,21,0.00
2017,11,26,10,22,0.00
2017,11,26,10,23,0.00
2017,11,26,10,24,0.00
2017,11,26,10,25,0.00
2017,11,26,10,26,0.00
2017,11,26,10,27,0.00
2017,11,26,10,28,0.00
2017,11,26,10,29,0.00
2017,11,26,10,30,0.00
2017,11,26,10,31,0.00
2017,11,26,10,32,0.00
2017,11,26,10,33,4.20
2017,11,26,10,34,3.50
2017,11,26,10,35,4.30
2017,11,26,10,36,3.80
2017,11,26,10,37,4.70
2017,11,26,10,38,4.40
2017,11,26,10,39,3.10
2017,11,26,10,40,2.70
2017,11,26,10,41,1.90
2017,11,26,10,42,2.30
2017,11,26,10,43,2.10
2017,11,26,10,44,0.90
2017,11,26,10,45,0.10
2017,11,26,10,46,1.20
2017,11,26,10,47,1.00
2017,11,26,10,48,0.00
2017,11,26,10,49,0.00
2017,11,26,10,50,0.00
2017,11,26,10,51,0.00
2017,11,26,10,52,0.00
2017,11,26,10,53,0.00
2017,11,26,10,54,0.00
2017,11,26,10,55,0.00
2017,11,26,10,56,0.00
2017,11,26,10,57,0.00
2017,11,26,10,58,0.00
2017,11,26,10,59,0.00
2017,11,26,11,00,0.50
2017,11,26,11,01,3.30
2017,11,26,11,02,3.50
2017,11,26,11,03,4.20
2017,11,26,11,04,2.80
2017,11,26,11,05,3.20
2017,11,26,11,06,5.50
2017,11,26,11,07,3.50
2017,11,26,11,08,4.70
2017,11,26,11,09,5.20
2017,11,26,11,10,4.00
2017,11,26,11,11,4.30
2017,11,26,11,12,5.30
2017,11,26,11,13,6.20
2017,11,26,11,14,6.30
2017,11,26,11,15,3.80
2017,11,26,11,16,1.40
2017,11,26,11,17,0.80
2017,11,26,11,18,2.10
2017,11,26,11,19,2.20
2017,11,26,11,20,2.00
2017,11,26,11,21,1.90
2017,11,26,11,22,1.70
2017,11,26,11,23,0.40
2017,11,26,11,24,0.00
2017,11,26,11,25,0.20
2017,11,26,11,26,2.20
2017,11,26,11,27,4.60
2017,11,26,11,28,0.30
2017,11,26,11,29,0.00
2017,11,26,11,30,0.20
2017,11,26,11,31,0.00
2017,11,26,11,32,0.00
2017,11,26,11,33,0.00
2017,11,26,11,34,0.00
2017,11,26,11,35,0.00
2017,11,26,11,36,0.00
2017,11,26,11,37,0.00
2017,11,26,11,38,0.50
2017,11,26,11,39,6.10
2017,11,26,11,40,5.00
2017,11,26,11,41,2.00
2017,11,26,11,42,2.90
2017,11,26,11,43,4.50
2017,11,26,11,44,3.90
2017,11,26,11,45,2.70
2017,11,26,11,46,1.10
2017,11,26,11,47,0.50
2017,11,26,11,48,1.50
2017,11,26,11,49,0.00
2017,11,26,11,50,0.00
2017,11,26,11,51,2.10
2017,11,26,11,52,3.00
2017,11,26,11,53,1.40
2017,11,26,11,54,3.40
2017,11,26,11,55,2.90
2017,11,26,11,56,2.50
2017,11,26,11,57,0.20
2017,11,26,11,58,0.00
2017,11,26,11,59,0.00
2017,11,26,12,00,0.00
2017,11,26,12,01,0.00
2017,11,26,12,02,0.00
2017,11,26,12,03,0.00
2017,11,26,12,04,0.40
2017,11,26,12,05,4.20
2017,11,26,12,06,4.70
2017,11,26,12,07,5.00
2017,11,26,12,08,3.40
2017,11,26,12,09,5.00
2017,11,26,12,10,5.30
2017,11,26,12,11,5.90
2017,11,26,12,12,6.40
2017,11,26,12,13,3.50
2017,11,26,12,14,1.70
2017,11,26,12,15,3.80
2017,11,26,12,16,2.50
2017,11,26,12,17,1.10
2017,11,26,12,18,0.80
2017,11,26,12,19,0.30
2017,11,26,12,20,2.10
2017,11,26,12,21,0.70
2017,11,26,12,22,0.70
2017,11,26,12,23,1.90
2017,11,26,12,24,2.50
2017,11,26,12,25,2.10
2017,11,26,12,26,2.70
2017,11,26,12,27,3.60
2017,11,26,12,28,3.80
2017,11,26,12,29,3.80
2017,11,26,12,30,3.90
2017,11,26,12,31,4.50
2017,11,26,12,32,4.20
2017,11,26,12,33,2.90
2017,11,26,12,34,2.00
2017,11,26,12,35,1.70
2017,11,26,12,36,0.00
2017,11,26,12,37,0.00
2017,11,26,12,38,0.00
2017,11,26,12,39,0.00
2017,11,26,12,40,0.00
2017,11,26,12,41,0.00
2017,11,26,12,42,0.00
2017,11,26,12,43,0.00
2017,11,26,12,44,0.00
2017,11,26,12,45,0.10
2017,11,26,12,46,4.10
2017,11,26,12,47,3.70
2017,11,26,12,48,2.50
2017,11,26,12,49,1.20
2017,11,26,12,50,8.40
2017,11,26,12,51,11.00
2017,11,26,12,52,10.00
2017,11,26,12,53,9.40
2017,11,26,12,54,17.90
2017,11,26,12,55,18.10
2017,11,26,12,56,13.50
2017,11,26,12,57,13.60
2017,11,26,12,58,9.10
2017,11,26,12,59,7.00
2017,11,26,13,00,10.70
2017,11,26,13,01,7.40
2017,11,26,13,02,4.40
2017,11,26,13,03,1.10
2017,11,26,13,04,9.70
2017,11,26,13,05,9.90
2017,11,26,13,06,12.40
2017,11,26,13,07,8.70
2017,11,26,13,08,6.10
2017,11,26,13,09,7.70
2017,11,26,13,10,4.70
2017,11,26,13,11,2.90
2017,11,26,13,12,3.40
2017,11,26,13,13,3.80
2017,11,26,13,14,2.80
2017,11,26,13,15,8.20
2017,11,26,13,16,7.30
2017,11,26,13,17,3.50
2017,11,26,13,18,6.20
2017,11,26,13,19,6.60
2017,11,26,13,20,8.70
2017,11,26,13,21,6.20
2017,11,26,13,22,6.40
2017,11,26,13,23,4.80
2017,11,26,13,24,1.40
2017,11,26,13,25,1.60
2017,11,26,13,26,1.40
2017,11,26,13,27,2.80
2017,11,26,13,28,4.50
2017,11,26,13,29,6.40
2017,11,26,13,30,10.50
2017,11,26,13,31,4.80
2017,11,26,13,32,4.20
2017,11,26,13,33,9.40
2017,11,26,13,34,10.30
2017,11,26,13,35,7.50
2017,11,26,13,36,3.90
2017,11,26,13,37,4.00
2017,11,26,13,38,1.30
2017,11,26,13,39,3.10
2017,11,26,13,40,3.30
2017,11,26,13,41,1.80
2017,11,26,13,42,2.70
2017,11,26,13,43,3.70
2017,11,26,13,44,4.00
2017,11,26,13,45,6.20
2017,11,26,13,46,6.00
2017,11,26,13,47,4.80
2017,11,26,13,48,2.70
2017,11,26,13,49,2.40
2017,11,26,13,50,2.40
2017,11,26,13,51,4.30
2017,11,26,13,52,8.70
2017,11,26,13,53,8.40
2017,11,26,13,54,8.30
2017,11,26,13,55,2.80
2017,11,26,13,56,4.20
2017,11,26,13,57,10.10
2017,11,26,13,58,5.20
2017,11,26,13,59,2.30
2017,11,26,14,00,2.30
2017,11,26,14,01,3.60
2017,11,26,14,02,5.60
2017,11,26,14,03,2.80
2017,11,26,14,04,5.00
2017,11,26,14,05,4.30
2017,11,26,14,06,6.90
2017,11,26,14,07,8.50
2017,11,26,14,08,8.60
2017,11,26,14,09,4.20
2017,11,26,14,10,4.40
2017,11,26,14,11,2.00
2017,11,26,14,12,3.40
2017,11,26,14,13,3.70
2017,11,26,14,14,2.90
2017,11,26,14,15,6.50
2017,11,26,14,16,8.80
2017,11,26,14,17,5.30
2017,11,26,14,18,3.30
2017,11,26,14,19,3.80
2017,11,26,14,20,0.10
2017,11,26,14,21,1.50
2017,11,26,14,22,2.60
2017,11,26,14,23,2.00
2017,11,26,14,24,1.10
2017,11,26,14,25,4.20
2017,11,26,14,26,5.80
2017,11,26,14,27,6.20
2017,11,26,14,28,6.90
2017,11,26,14,29,4.90
2017,11,26,14,30,1.40
2017,11,26,14,31,4.50
2017,11,26,14,32,7.30
2017,11,26,14,33,3.40
2017,11,26,14,34,0.30
2017,11,26,14,35,2.10
2017,11,26,14,36,1.30
2017,11,26,14,37,3.80
2017,11,26,14,38,7.30
2017,11,26,14,39,4.80
2017,11,26,14,40,5.30
2017,11,26,14,41,2.10
2017,11,26,14,42,1.90
2017,11,26,14,43,2.60
2017,11,26,14,44,3.30
2017,11,26,14,45,2.50
2017,11,26,14,46,5.10
2017,11,26,14,47,0.90
2017,11,26,14,48,1.20
2017,11,26,14,49,2.50
2017,11,26,14,50,2.20
2017,11,26,14,51,0.10
2017,11,26,14,52,2.10
2017,11,26,14,53,3.00
2017,11,26,14,54,1.10
2017,11,26,14,55,2.60
2017,11,26,14,56,2.00
2017,11,26,14,57,0.60
2017,11,26,14,58,2.50
2017,11,26,14,59,5.10
2017,11,26,15,00,4.00
2017,11,26,15,01,5.90
2017,11,26,15,02,3.70
2017,11,26,15,03,4.00
2017,11,26,15,04,5.50
2017,11,26,15,05,2.20
2017,11,26,15,06,1.30
2017,11,26,15,07,2.30
2017,11,26,15,08,1.90
2017,11,26,15,09,2.50
2017,11,26,15,10,4.80
2017,11,26,15,11,1.50
2017,11,26,15,12,3.60
2017,11,26,15,13,4.20
2017,11,26,15,14,1.20
2017,11,26,15,15,2.10
2017,11,26,15,16,3.90
2017,11,26,15,17,4.70
2017,11,26,15,18,6.80
2017,11,26,15,19,7.30
2017,11,26,15,20,4.90
2017,11,26,15,21,4.60
2017,11,26,15,22,5.50
2017,11,26,15,23,4.70
2017,11,26,15,24,3.80
2017,11,26,15,25,5.40
2017,11,26,15,26,4.80
2017,11,26,15,27,3.60
2017,11,26,15,28,1.20
2017,11,26,15,29,5.20
2017,11,26,15,30,4.20
2017,11,26,15,31,4.50
2017,11,26,15,32,4.80
2017,11,26,15,33,3.60
2017,11,26,15,34,5.00
2017,11,26,15,35,3.70
2017,11,26,15,36,1.80
2017,11,26,15,37,2.90
2017,11,26,15,38,2.70
2017,11,26,15,39,1.20
2017,11,26,15,40,1.00
2017,11,26,15,41,1.00
2017,11,26,15,42,2.20
2017,11,26,15,43,3.30
2017,11,26,15,44,3.70
2017,11,26,15,45,5.60
2017,11,26,15,46,4.80
2017,11,26,15,47,5.00
2017,11,26,15,48,4.20
2017,11,26,15,49,5.90
2017,11,26,15,50,3.70
2017,11,26,15,51,6.30
2017,11,26,15,52,3.80
2017,11,26,15,53,4.00
2017,11,26,15,54,4.50
2017,11,26,15,55,4.80
2017,11,26,15,56,5.30
2017,11,26,15,57,3.80
2017,11,26,15,58,0.90
2017,11,26,15,59,2.50
2017,11,26,16,00,4.70
2017,11,26,16,01,1.20
2017,11,26,16,02,0.10
2017,11,26,16,03,3.60
2017,11,26,16,04,4.70
2017,11,26,16,05,2.70
2017,11,26,16,06,1.40
2017,11,26,16,07,3.30
2017,11,26,16,08,2.70
2017,11,26,16,09,2.50
2017,11,26,16,10,2.70
2017,11,26,16,11,5.10
2017,11,26,16,12,4.50
2017,11,26,16,13,5.60
2017,11,26,16,14,3.40
2017,11,26,16,15,2.90
2017,11,26,16,16,7.50
2017,11,26,16,17,7.40
2017,11,26,16,18,6.30
2017,11,26,16,19,5.10
2017,11,26,16,20,3.00
2017,11,26,16,21,5.20
2017,11,26,16,22,4.90
2017,11,26,16,23,4.60
2017,11,26,16,24,3.30
2017,11,26,16,25,3.00
2017,11,26,16,26,2.60
2017,11,26,16,27,3.50
2017,11,26,16,28,5.70
2017,11,26,16,29,4.30
2017,11,26,16,30,4.00
2017,11,26,16,31,4.80
2017,11,26,16,32,3.50
2017,11,26,16,33,6.10
2017,11,26,16,34,4.70
2017,11,26,16,35,2.50
2017,11,26,16,36,2.30
2017,11,26,16,37,2.80
2017,11,26,16,38,3.00
2017,11,26,16,39,3.50
2017,11,26,16,40,3.70
2017,11,26,16,41,3.20
2017,11,26,16,42,4.70
2017,11,26,16,43,2.20
2017,11,26,16,44,3.50
2017,11,26,16,45,3.30
2017,11,26,16,46,3.30
2017,11,26,16,47,4.00
2017,11,26,16,48,3.80
2017,11,26,16,49,3.80
2017,11,26,16,50,3.80
2017,11,26,16,51,4.30
2017,11,26,16,52,4.50
2017,11,26,16,53,3.10
2017,11,26,16,54,3.20
2017,11,26,16,55,4.40
2017,11,26,16,56,6.30
2017,11,26,16,57,4.80
2017,11,26,16,58,3.60
2017,11,26,16,59,3.70
2017,11,26,17,00,3.20
2017,11,26,17,01,3.40
2017,11,26,17,02,4.00
2017,11,26,17,03,2.60
2017,11,26,17,04,2.10
2017,11,26,17,05,1.40
2017,11,26,17,06,1.20
2017,11,26,17,07,0.00
2017,11,26,17,08,0.10
2017,11,26,17,09,1.00
2017,11,26,17,10,3.90
2017,11,26,17,11,4.40
2017,11,26,17,12,3.30
2017,11,26,17,13,1.90
2017,11,26,17,14,3.70
2017,11,26,17,15,4.30
2017,11,26,17,16,3.10
2017,11,26,17,17,2.60
2017,11,26,17,18,0.60
2017,11,26,17,19,0.00
2017,11,26,17,20,0.00
2017,11,26,17,21,0.00
2017,11,26,17,22,1.10
2017,11,26,17,23,3.70
2017,11,26,17,24,3.90
2017,11,26,17,25,0.10
2017,11,26,17,26,1.10
2017,11,26,17,27,0.40
2017,11,26,17,28,0.00
2017,11,26,17,29,0.00
2017,11,26,17,30,0.00
2017,11,26,17,31,0.00
2017,11,26,17,32,0.00
2017,11,26,17,33,0.00
2017,11,26,17,34,0.60
2017,11,26,17,35,2.90
2017,11,26,17,36,3.20
2017,11,26,17,37,2.30
2017,11,26,17,38,1.90
2017,11,26,17,39,1.90
2017,11,26,17,40,0.20
2017,11,26,17,41,0.00
2017,11,26,17,42,0.00
2017,11,26,17,43,0.00
2017,11,26,17,44,0.00
2017,11,26,17,45,0.00
2017,11,26,17,46,0.00
2017,11,26,17,47,0.00
2017,11,26,17,48,0.00